Location: Newark
(27.9675°N, 86.8869°E)
Time: 05:50:16
(UTC+00:00)

A-11 Canister half - Pass Details

Date: 23 October 2019
Orbit: 1527 x 1682 km, 47.3° (Epoch: 12 November)

Event Time Altitude Azimuth Distance (km) Brightness Sun altitude
Rises 12:08:03 0° 228° (SW) 4,807 12.7 -7.8°
Reaches altitude 10° 12:11:10 10° 229° (SW) 3,802 12.1 -8.4°
Maximum altitude 12:20:50 85° 318° (NW) 1,567 9.1 -10.6°
Drops below altitude 10° 12:30:14 10° 48° (NE) 3,708 10.5 -12.6°
Enters shadow 12:31:11 - 48° (NE) 4,012 10.7 -12.8°
